Location: downtown San Diego
(32.7310°N, 117.1990°W)
Time: 17:33:09
(UTC-07:00)

Meteor 1-11 Rocket - Pass Details

Date: 19 May 2017
Orbit: 832 x 915 km, 81.2° (Epoch: 25 July)

Event Time Altitude Azimuth Distance (km) Brightness Sun altitude
Rises 20:01:57 0° 351° (N) 3,444 7.4 -4.3°
Reaches altitude 10° 20:04:21 10° 350° (N) 2,516 6.7 -4.7°
Maximum altitude 20:10:06 83° 263° (W) 892 3.9 -5.8°
Drops below altitude 10° 20:15:56 10° 176° (S) 2,558 5.9 -6.9°
Sets 20:18:24 0° 176° (S) 3,505 6.6 -7.3°
